Zurück zum Katalog

THORAD AGENA D DEB

AktivSSO
NORAD 4914·DEBRIS·🇺🇸 United States

Gestartet Apr 8, 1970 von Vandenberg Space Force Base

Loading…

Nächste Überflüge

TLE

Source: Space-Track
1 04914U 70025FL  26218.80344100  .00002351  00000-0  26308-2 0  9993
2 04914  99.4410 163.9726 0080844  77.5231 336.9561 13.70719667781714

Verfolge THORAD AGENA D DEB in Echtzeit mit AllMySat

Download on the App Store